Flag for U.S.A. Weather past 2 weeks in Orlando, Florida, U.S.A.

Now
78 °F

Partly sunny.


Feels Like: 81 °F
Forecast: 74 / 85 °F
Wind: 9 mph from South

Location: Orlando Executive Airport

Current Time: Aug 2, 2015 at 7:34:37 PM

Latest Report: Aug 2, 2015 at 6:53 PM


Visibility: 10 mi

Pressure: 29.94 "Hg

Humidity: 87%

Dew point: 74 °F

Location of OrlandoLocation

Historic Weather in Orlando — Graph

°F

Orlando temperature yesterday

Maximum temperature yesterday: 88 °F (at 11:53 AM)
Minimum temperature yesterday: 74 °F (at 1:53 PM)
Average temperature yesterday: 77 °F

Past Weeks' High & Low Weather Summary

 TemperatureHumidityPressure
High94 °F (Jul 23, 3:53 PM)100% (Jul 23, 5:53 AM)30.07 "Hg (Jul 23, 5:53 AM)
Low73 °F (Aug 2, 1:53 PM)54% (Jul 23, 3:53 PM)29.84 "Hg (Jul 25, 5:00 PM)
Average81 °F86%29.97 "Hg
* Reported Jul 18 5:53 PM — Aug 2 5:53 PM, Orlando, Weather by CustomWeather, © 2015

Note: Actual official high and low records may vary slightly from our data, if they occured in-between our weather recording intervals... More about our weather records

Advertising

Orlando weather history for previous 24 hours

 ConditionsComfort  
Time TempWeatherWind HumidityBarometerVisibility
5:53 PM
Sun, Aug 2
77 °FBroken clouds.9 mph90%29.94 "Hg10 mi
4:53 PM76 °FBroken clouds.9 mph94%29.96 "Hg10 mi
3:53 PM74 °FLight rain. Partly sunny.8 mph94%29.94 "Hg8 mi
2:53 PM73 °FLight rain. Fog.7 mph94%29.98 "Hg6 mi
2:03 PM73 °FRain. Fog.13 mph100%29.99 "Hg2 mi
1:53 PM73 °FRain. Fog.14 mph97%30.00 "Hg1 mi
12:53 PM83 °FPassing clouds.No wind79%29.96 "Hg10 mi
11:53 AM81 °FPartly sunny.8 mph79%29.98 "Hg10 mi
10:53 AM79 °FBroken clouds.15 mph79%29.98 "Hg9 mi
9:53 AM80 °FPassing clouds.8 mph81%29.96 "Hg10 mi
8:53 AM78 °FSunny.9 mph90%29.96 "Hg10 mi
7:53 AM76 °FPartly sunny.8 mph94%29.95 "Hg10 mi
6:53 AM74 °FClear.8 mph100%29.94 "Hg10 mi
5:53 AM74 °FClear.5 mph97%29.93 "Hg10 mi
4:53 AM74 °FClear.6 mph94%29.92 "Hg10 mi
3:53 AM74 °FClear.8 mph94%29.92 "Hg10 mi
2:53 AM74 °FPassing clouds.8 mph97%29.94 "Hg10 mi
1:53 AM75 °FPartly cloudy.10 mph90%29.98 "Hg10 mi
12:53 AM75 °FPassing clouds.13 mph94%30.00 "Hg10 mi
11:53 PM
Sat, Aug 1
74 °FPassing clouds.9 mph97%29.99 "Hg10 mi
10:53 PM74 °FPassing clouds.7 mph97%29.99 "Hg10 mi
9:53 PM74 °FPassing clouds.13 mph97%29.98 "Hg10 mi
8:53 PM75 °FSunny.9 mph96%29.96 "Hg10 mi
7:53 PM75 °FPartly sunny.7 mph96%29.95 "Hg10 mi
Weather by CustomWeather, © 2015

See weather overviewHow to use our weather pages